Location: Bremen
(53.0793°N, 8.8017°E)
Time: 12:01:37
(UTC+01:00)

deb Explorer IX - Pass Details

Date: 14 December 2021
Orbit: 544 x 1082 km, 38.8° (Epoch: 14 January)

Event Time Altitude Azimuth Distance (km) Brightness Sun altitude
Rises 06:55:42 0° 222° (SW) 3,655 ? -13.2°
Reaches altitude 10° 06:59:32 10° 202° (SSW) 2,602 ? -12.7°
Maximum altitude 07:03:04 16° 167° (SSE) 2,108 ? -12.2°
Drops below altitude 10° 07:06:21 10° 131° (SE) 2,382 ? -11.7°
Sets 07:09:37 0° 110° (ESE) 3,194 ? -11.3°
